STARLINK-36988, 67998

Orbit data source: Space-Track

STARLINK-36988, 67998 is a payload satellite owned by SpaceX/Seattle (US) in LEO that was launched on Fri, 27 Feb 2026 UTC via an FALCON 9 launch vehicle from the Air Force Eastern Test Range (AFETR). Payload-class satellites include a variety of spacecraft equipped with specific instruments for various scientific and technological missions. These include communications satellites like Starlink; space stations such as the ISS; scientific satellites like the Hubble; Earth observation satellites from companies like Planet Labs, Umbra, and HawkEye 360; GPS; miniature CubeSats for education and research; and military/defense satellites.

Loading next visibility...
Identifier
67998, 2026-039N
Orbit
LEO
Country
Flag of USUS
Related business
Manufacturer
SpaceX/Seattle
Mission
Operational Commercial Communications
Bus & Motor
STARLINK V2MO, Unknown motor
Mass
575 kg wet, ~530 kg dry
Launch date (UTC)
2026-02-27 (4 months ago)
Launch vehicle
FALCON 9
Launch site
Air Force Eastern Test Range (AFETR)
Object type
Payload
Rocket body
Debris
Shape & HBR
Box + 2 Pan, 17.7 m
Radar Cross Section
36.964 m², Large (>1 m²)

Expand to show TLE details & history
Last TLE update: 19 hours ago

TLE from 19 hours ago
0 STARLINK-36988
1 67998U 26039N   26171.06399981  .00011098  00000-0  41201-3 0  9991
2 67998  43.0003 190.4826 0001893 280.6068  79.4570 15.27594947 17364
Epoch: 2026-06-20T01:32Z
TLE epoch observation values (Epoch: 2026-06-20T01:32:09.583Z)
Latitude
-0.00005°
Longitude
-100.84137°
Altitude
482.542 km
Speed
7.626 km/s
True Right ascension
12h 41m 55s
True Declination
0° 00' 00"
Sunlit
Object was in daylight at epoch
Visualization orbit readout
Latitude
Unknown
Longitude
Unknown
Altitude
Unknown
Speed
Unknown
Apparent Right ascension
Unknown
Apparent Declination
Unknown
Sunlit
N/A
Visualization observer readout
Local Sidereal Time
07:22:42
Azimuth
Unknown
Elevation
Unknown
Doppler factor
Unknown
Orbital elements
Apogee altitude
486.249 km
Perigee altitude
483.65 km
Semi-major axis
6,863.086 km
Eccentricity
0.00019
Inclination
43.0003°
RAAN
190.4826°
Arg. of periapsis
280.6068°
True anomaly
79.47833°
Mean anomaly
79.457°
Eccentric anomaly
79.46766°
Mean motion
3.81737 °/min
Orbital period
94.31 mins
BSTAR
0.00041201
Loading maneuver chart data...
Computing Atmospheric mass density...
Loading historical data...
Loading historical data...
Loading historical data...
Loading historical data...
Loading historical data...
Loading historical data...
Loading historical data...

Documentation

Showing up to 5 results
|